{"data":{"norad_id":64727,"intl_designator":"2025-144D","name":"STARLINK-34242","alt_names":[],"object_type":"PAYLOAD","status":"ACTIVE","operator":null,"country":"US","launch_date":"2025-07-02","launch_site_code":"AFETR","launch_vehicle":null,"mission":null,"orbit_class":"UNKNOWN","rcs_meters":null,"size_class":null,"mass_kg":null,"dimensions":null,"purposes":["comms"],"wikipedia_slug":null,"has_3d_model":false,"image_url":null,"decayed_at":null,"tle_current":{"epoch":"2026-05-25T03:26:51.482688Z","epoch_age_seconds":73126,"freshness":"FRESH","line1":"1 64727U 25144D   26145.14365142  .00009294  00000+0  32554-3 0  9991","line2":"2 64727  53.1576 186.1831 0001096  58.0334 302.0773 15.30198443 51413","mean_motion":15.30198443,"eccentricity":0.0001096,"inclination_deg":53.1576,"raan_deg":186.1831,"arg_perigee_deg":58.0334,"mean_anomaly_deg":302.0773,"bstar":0.00032554,"rev_number":5141,"period_min":94.105441460053,"perigee_km":474.46859044828,"apogee_km":475.97084624095,"semimajor_km":6853.3567183446,"source":"CELESTRAK","updated_at":"2026-05-25T13:38:20.519714Z"}}}